Find Starlink 5389

NORAD ID: 54835 Int'l Des: 2022-177 Owner: SPXS Country: US Constellation: starlink operational
LEOCIRCULAR

当前视图

正在加载3D地球...

About Starlink 5389

Starlink 5389 (NORAD 54835) is a starlink constellation satellite (v1.5) launched Dec 28, 2022 by SPXS of US. It operates in LEO, CIRCULAR orbit with a mass of 305.00 kg.

关于 Starlink 5389

正在加载描述...

即将过境

Passes for default location (London). Set your location on the main map for personalized predictions.

高度历史

Loading altitude history...

两行轨道根数

1 54835C 22177R 26173.89076389 -.00030255 00000+0 -10958-2 0 1738
2 54835 42.9995 262.2098 0001800 271.0362 295.4273 15.27593259 15
Epoch: Jun 22, 2026 • Age: 21 hours

当前状态

高度 495.2 km
速度 7.62 km/s
星下点 -42.96°S, 9.08°W
发射日期 Dec 28, 2022
运行时间 3.4 years
类型 internet

技术详情

分类 Payload
质量 305.00 kg
干质量 290.00 kg
总质量 305.00 kg
长度 0.20 m
直径 2.80 m
跨度 9.00 m
形状 Box + pan
制造商 SPXS
平台类型 Starlink
阶段状态 In Orbit
所有者/国家 SPXS/US

Most Searched